Previsão horária em 1-e Tukatovo

Hoje, 24 Outubro, Sábado

Tempo Temperatura Precipitação Vento Pressão Humidade
00:00 -2°C° 0.5 mm 5 m/s 737 mmHg 96%
01:00 -2°C° 0.5 mm 5 m/s 736 mmHg 96%
02:00 -2°C° 0.6 mm 5 m/s 735 mmHg 97%
03:00 -1°C° 0.6 mm 4 m/s 735 mmHg 97%
04:00 -1°C° 0.6 mm 4 m/s 734 mmHg 97%
05:00 0°C° 0.5 mm 4 m/s 734 mmHg 97%
06:00 +1°C° 0.5 mm 5 m/s 733 mmHg 98%
07:00 +1°C° 0.5 mm 5 m/s 732 mmHg 98%
08:00 +1°C° 0.5 mm 5 m/s 732 mmHg 97%
09:00 +1°C° 0.5 mm 6 m/s 732 mmHg 96%
10:00 +1°C° 0.5 mm 6 m/s 731 mmHg 95%
11:00 +2°C° 1.4 mm 6 m/s 731 mmHg 96%
12:00 +2°C° 1.4 mm 5 m/s 730 mmHg 97%
13:00 +3°C° 1.4 mm 5 m/s 730 mmHg 98%
14:00 +4°C° 1.6 mm 4 m/s 730 mmHg 98%
15:00 +5°C° 1.6 mm 4 m/s 730 mmHg 98%
16:00 +6°C° 1.6 mm 4 m/s 730 mmHg 98%
17:00 +6°C° 0.3 mm 4 m/s 730 mmHg 98%
18:00 +7°C° 0.3 mm 4 m/s 730 mmHg 98%
19:00 +7°C° 0.3 mm 4 m/s 730 mmHg 98%
20:00 +8°C° 0.1 mm 3 m/s 731 mmHg 98%
21:00 +8°C° 0.1 mm 3 m/s 731 mmHg 98%
22:00 +8°C° 0.1 mm 3 m/s 731 mmHg 98%
23:00 +8°C° 0 mm 3 m/s 732 mmHg 98%

Amanhã, 25 Outubro, Domingo

Tempo Temperatura Precipitação Vento Pressão Humidade
00:00 +8°C° 0 mm 3 m/s 732 mmHg 98%
01:00 +7°C° 0 mm 2 m/s 732 mmHg 98%
02:00 +7°C° 0 mm 2 m/s 732 mmHg 97%
03:00 +7°C° 0 mm 2 m/s 732 mmHg 97%
04:00 +7°C° 0 mm 2 m/s 732 mmHg 96%
05:00 +7°C° 0.1 mm 2 m/s 732 mmHg 95%
06:00 +7°C° 0.1 mm 2 m/s 732 mmHg 94%
07:00 +7°C° 0.1 mm 2 m/s 732 mmHg 93%
08:00 +8°C° 0 mm 2 m/s 732 mmHg 91%
09:00 +8°C° 0 mm 2 m/s 732 mmHg 89%
10:00 +10°C° 0 mm 1 m/s 732 mmHg 87%
11:00 +10°C° 0 mm 1 m/s 732 mmHg 88%
12:00 +10°C° 0 mm 1 m/s 732 mmHg 89%
13:00 +11°C° 0 mm 1 m/s 731 mmHg 89%
14:00 +10°C° 0.9 mm 1 m/s 731 mmHg 92%
15:00 +10°C° 0.9 mm 1 m/s 730 mmHg 95%
16:00 +10°C° 0.9 mm 1 m/s 730 mmHg 97%
17:00 +10°C° 1.7 mm 1 m/s 729 mmHg 98%
18:00 +10°C° 1.7 mm 1 m/s 728 mmHg 98%
19:00 +10°C° 1.7 mm 1 m/s 728 mmHg 98%
20:00 +9°C° 0.9 mm 2 m/s 727 mmHg 98%
21:00 +9°C° 0.9 mm 2 m/s 727 mmHg 98%
22:00 +9°C° 0.9 mm 3 m/s 726 mmHg 98%
23:00 +8°C° 0.5 mm 3 m/s 726 mmHg 98%

Depois de amanhã, 26 Outubro, Segunda-feira

Tempo Temperatura Precipitação Vento Pressão Humidade
00:00 +8°C° 0.5 mm 3 m/s 725 mmHg 98%
01:00 +8°C° 0.5 mm 3 m/s 725 mmHg 98%
02:00 +7°C° 0.3 mm 4 m/s 725 mmHg 95%
03:00 +6°C° 0.3 mm 5 m/s 726 mmHg 93%
04:00 +5°C° 0.3 mm 6 m/s 726 mmHg 90%
05:00 +4°C° 0.1 mm 6 m/s 727 mmHg 90%
06:00 +3°C° 0.1 mm 7 m/s 727 mmHg 90%
07:00 +3°C° 0.1 mm 7 m/s 728 mmHg 90%
08:00 +2°C° 0.1 mm 7 m/s 728 mmHg 85%
09:00 +2°C° 0.1 mm 7 m/s 729 mmHg 80%
10:00 0°C° 0.1 mm 7 m/s 730 mmHg 75%
11:00 0°C° 0 mm 7 m/s 730 mmHg 71%
12:00 0°C° 0 mm 7 m/s 731 mmHg 67%
13:00 +2°C° 0 mm 7 m/s 731 mmHg 63%
14:00 0°C° 0 mm 7 m/s 732 mmHg 67%
15:00 -1°C° 0 mm 7 m/s 732 mmHg 70%
16:00 -1°C° 0 mm 7 m/s 732 mmHg 74%
17:00 -2°C° 0 mm 6 m/s 733 mmHg 75%
18:00 -2°C° 0 mm 6 m/s 733 mmHg 75%
19:00 -2°C° 0 mm 5 m/s 733 mmHg 75%
20:00 -3°C° 0.4 mm 6 m/s 733 mmHg 80%
21:00 -3°C° 0.4 mm 7 m/s 733 mmHg 84%
22:00 -5°C° 0.4 mm 8 m/s 733 mmHg 88%
23:00 -5°C° 0.1 mm 8 m/s 733 mmHg 87%

, 27 Outubro, Terça-feira

Tempo Temperatura Precipitação Vento Pressão Humidade
00:00 -4°C° 0.1 mm 7 m/s 734 mmHg 86%
01:00 -6°C° 0.1 mm 7 m/s 734 mmHg 85%
02:00 -6°C° 0 mm 8 m/s 734 mmHg 85%
03:00 -6°C° 0 mm 8 m/s 735 mmHg 85%
04:00 -6°C° 0 mm 8 m/s 735 mmHg 85%
05:00 -6°C° 0 mm 8 m/s 736 mmHg 84%
06:00 -6°C° 0 mm 8 m/s 736 mmHg 84%
07:00 -6°C° 0 mm 7 m/s 736 mmHg 84%
08:00 -6°C° 0 mm 8 m/s 737 mmHg 82%
09:00 -5°C° 0 mm 8 m/s 737 mmHg 80%
10:00 -5°C° 0 mm 8 m/s 737 mmHg 78%
11:00 -4°C° 0 mm 8 m/s 738 mmHg 77%
12:00 -4°C° 0 mm 8 m/s 738 mmHg 76%
13:00 -2°C° 0 mm 8 m/s 739 mmHg 75%
14:00 -4°C° 0 mm 8 m/s 739 mmHg 76%
15:00 -4°C° 0 mm 8 m/s 740 mmHg 77%
16:00 -4°C° 0 mm 8 m/s 740 mmHg 78%
17:00 -3°C° 0 mm 7 m/s 741 mmHg 79%
18:00 -4°C° 0 mm 6 m/s 741 mmHg 81%
19:00 -4°C° 0 mm 6 m/s 742 mmHg 82%
20:00 -4°C° 0 mm 6 m/s 742 mmHg 83%
21:00 -5°C° 0 mm 5 m/s 743 mmHg 84%
22:00 -5°C° 0 mm 5 m/s 743 mmHg 84%
23:00 -4°C° 0 mm 4 m/s 743 mmHg 85%

27 Outubro, Terça-feira

Tempo Temperatura Precipitação Vento Pressão Humidade
00:00 -4°C° 0.1 mm 7 m/s 734 mmHg 86%
01:00 -6°C° 0.1 mm 7 m/s 734 mmHg 85%
02:00 -6°C° 0 mm 8 m/s 734 mmHg 85%
03:00 -6°C° 0 mm 8 m/s 735 mmHg 85%
04:00 -6°C° 0 mm 8 m/s 735 mmHg 85%
05:00 -6°C° 0 mm 8 m/s 736 mmHg 84%
06:00 -6°C° 0 mm 8 m/s 736 mmHg 84%
07:00 -6°C° 0 mm 7 m/s 736 mmHg 84%
08:00 -6°C° 0 mm 8 m/s 737 mmHg 82%
09:00 -5°C° 0 mm 8 m/s 737 mmHg 80%
10:00 -5°C° 0 mm 8 m/s 737 mmHg 78%
11:00 -4°C° 0 mm 8 m/s 738 mmHg 77%
12:00 -4°C° 0 mm 8 m/s 738 mmHg 76%
13:00 -2°C° 0 mm 8 m/s 739 mmHg 75%
14:00 -4°C° 0 mm 8 m/s 739 mmHg 76%
15:00 -4°C° 0 mm 8 m/s 740 mmHg 77%
16:00 -4°C° 0 mm 8 m/s 740 mmHg 78%
17:00 -3°C° 0 mm 7 m/s 741 mmHg 79%
18:00 -4°C° 0 mm 6 m/s 741 mmHg 81%
19:00 -4°C° 0 mm 6 m/s 742 mmHg 82%
20:00 -4°C° 0 mm 6 m/s 742 mmHg 83%
21:00 -5°C° 0 mm 5 m/s 743 mmHg 84%
22:00 -5°C° 0 mm 5 m/s 743 mmHg 84%
23:00 -4°C° 0 mm 4 m/s 743 mmHg 85%

28 Outubro, Quarta-feira

Tempo Temperatura Precipitação Vento Pressão Humidade
00:00 -4°C° 0 mm 4 m/s 744 mmHg 85%
01:00 -4°C° 0 mm 4 m/s 744 mmHg 86%
02:00 -5°C° 0 mm 3 m/s 744 mmHg 87%
03:00 -5°C° 0 mm 3 m/s 745 mmHg 88%
04:00 -5°C° 0 mm 3 m/s 745 mmHg 90%
05:00 -5°C° 0 mm 3 m/s 745 mmHg 90%
06:00 -5°C° 0 mm 3 m/s 746 mmHg 90%
07:00 -4°C° 0 mm 2 m/s 746 mmHg 90%
08:00 -4°C° 0 mm 3 m/s 747 mmHg 83%
09:00 -2°C° 0 mm 3 m/s 747 mmHg 76%
10:00 -1°C° 0 mm 3 m/s 747 mmHg 68%
11:00 0°C° 0 mm 3 m/s 747 mmHg 65%
12:00 +1°C° 0 mm 3 m/s 748 mmHg 61%
13:00 +2°C° 0 mm 3 m/s 748 mmHg 57%
14:00 +1°C° 0 mm 3 m/s 748 mmHg 62%
15:00 +2°C° 0 mm 2 m/s 748 mmHg 67%
16:00 +1°C° 0 mm 2 m/s 748 mmHg 72%
17:00 -1°C° 0 mm 2 m/s 749 mmHg 76%
18:00 -2°C° 0 mm 2 m/s 749 mmHg 80%
19:00 -3°C° 0 mm 2 m/s 749 mmHg 84%
20:00 -1°C° 0 mm 1 m/s 750 mmHg 83%
21:00 -1°C° 0 mm 1 m/s 750 mmHg 82%
22:00 -1°C° 0 mm 1 m/s 750 mmHg 81%
23:00 -1°C° 0 mm 1 m/s 750 mmHg 79%

29 Outubro, Quinta-feira

Tempo Temperatura Precipitação Vento Pressão Humidade
00:00 -1°C° 0 mm 1 m/s 750 mmHg 78%
01:00 -2°C° 0 mm 0 m/s 750 mmHg 76%
02:00 -2°C° 0 mm 0 m/s 750 mmHg 74%
03:00 -2°C° 0 mm 0 m/s 751 mmHg 73%
04:00 -2°C° 0 mm 0 m/s 751 mmHg 71%
05:00 -2°C° 0 mm 0 m/s 751 mmHg 71%
06:00 -1°C° 0 mm 1 m/s 751 mmHg 71%
07:00 -1°C° 0 mm 1 m/s 751 mmHg 71%
08:00 0°C° 0 mm 1 m/s 751 mmHg 68%
09:00 +1°C° 0 mm 1 m/s 751 mmHg 64%
10:00 +2°C° 0 mm 1 m/s 751 mmHg 61%
11:00 +2°C° 0 mm 2 m/s 751 mmHg 59%
12:00 +3°C° 0 mm 2 m/s 751 mmHg 57%
13:00 +4°C° 0 mm 2 m/s 751 mmHg 55%
14:00 +3°C° 0 mm 2 m/s 751 mmHg 58%
15:00 +4°C° 0 mm 1 m/s 751 mmHg 62%
16:00 +3°C° 0 mm 1 m/s 751 mmHg 66%
17:00 +2°C° 0 mm 1 m/s 751 mmHg 67%
18:00 +2°C° 0 mm 1 m/s 751 mmHg 69%
19:00 +1°C° 0 mm 1 m/s 752 mmHg 71%
20:00 +1°C° 0 mm 1 m/s 751 mmHg 70%
21:00 +1°C° 0 mm 1 m/s 751 mmHg 70%
22:00 +1°C° 0 mm 1 m/s 751 mmHg 69%
23:00 +1°C° 0 mm 1 m/s 751 mmHg 69%
Mostrar mais